User: anonymous   Login
Location: Lafig�re
(44.4503°N, 4.0357°E)
Time: 16:53:35
(UTC+00:00)
Language:

Cosmos 1125 Rocket - Orbit

View from above orbital plane
View from above orbital plane
View from above satellite
View from above satellite

Ground track
Ground track

The orbit data is extracted from the following two-line orbital elements,

1 11511U 79078B   20337.76866540  .00000097  00000-0  41756-4 0  9990
2 11511  74.0345 150.7389 0014585  85.2747 275.0072 14.36908509159950
Epoch (UTC): 02 December 2020 18:26:52
Eccentricity: 0.0014585
inclination: 74.0345°
perigee height: 758 km
apogee height: 779 km
right ascension of ascending node: 150.7389°
argument of perigee: 85.2747°
revolutions per day: 14.36908509
mean anomaly at epoch: 275.0072°
orbit number at epoch: 15995

The dashed part of the orbit path shows where the satellite is in the earth's shadow,  

DLR